Regional Weather Roundup
Issued by NWS

Home | Current Version | Previous Version | Graphics & Text | Print | Product List | Glossary On
Versions: 1 2 3 4 5 6 7 8 9 10 11 12 13 14 15 16 17 18 19 20 21 22 23 24 25 26 27 28 29 30 31 32 33 34 35 36 37 38 39 40 41 42 43 44 45 46 47 48 49 50
000
ASUS43 KLOT 200002
RWRIL

ILLINOIS REGIONAL WEATHER ROUNDUP
NATIONAL WEATHER SERVICE CHICAGO/ROMEOVILLE IL
700 PM CDT SUN APR 19 2015

NOTE: "FAIR" INDICATES FEW OR NO CLOUDS BELOW 12,000 FEET WITH NO
SIGNIFICANT WEATHER AND/OR OBSTRUCTIONS TO VISIBILITY.

* THESE STATIONS ARE NOT UNDER NWS QUALITY CONTROL. THEY ALSO MAY NOT
  REPORT WEATHER SUCH AS PRECIPITATION OR FOG.

ILZ001-002-007-009-015-016-024-200100-
NORTHWEST ILLINOIS

CITY           SKY/WX    TMP DP  RH WIND       PRES   REMARKS
MOLINE         LGT RAIN  57  54  89 CALM      29.45F FOG
6HR MIN TEMP:  57; 6HR MAX TEMP:  79; 6HR PCP:  0.15;

STERLING*      CLOUDY    55  54  94 W5        29.46S
$$

ILZ003-004-008-010-011-017-018-200100-
NORTH CENTRAL ILLINOIS

CITY           SKY/WX    TMP DP  RH WIND       PRES   REMARKS
ROCKFORD       LGT RAIN  56  48  74 E12       29.48S
6HR MIN TEMP:  56; 6HR MAX TEMP:  76; 6HR PCP:  0.01;

$$

ILZ005-006-012>014-019>023-200100-
NORTHEAST ILLINOIS

CITY           SKY/WX    TMP DP  RH WIND       PRES   REMARKS
CHICAGO-OHARE  LGT RAIN  53  51  93 E10       29.45F FOG
6HR MIN TEMP:  51; 6HR MAX TEMP:  68; 6HR PCP:  0.28;

CHICAGO-MIDWAY LGT RAIN  55  53  93 NE15      29.44F FOG
6HR MIN TEMP:  55; 6HR MAX TEMP:  68; 6HR PCP:  0.30;

AURORA         LGT RAIN  55  51  86 NE10      29.44F FOG
6HR MIN TEMP:  55; 6HR MAX TEMP:  72; 6HR PCP:  0.14;

WAUKEGAN       RAIN      45  44  97 N5        29.49F FOG
6HR MIN TEMP:  45; 6HR MAX TEMP:  59; 6HR PCP:  0.16;

DUPAGE AIRPORT RAIN      53  51  93 NE9       29.44F FOG
6HR MIN TEMP:  53; 6HR MAX TEMP:  70; 6HR PCP:  0.16;

WHEELING       RAIN      50  48  93 NE6       29.47F FOG
6HR MIN TEMP:  48; 6HR MAX TEMP:  63; 6HR PCP:  0.29;

NORTHERLY ISL    N/A     50  48  93 NE7         N/A
$$

LMZ740>746-200100-
SOUTHERN LAKE MICHIGAN

STATION/POSITION SKY/WX   TEMP    WIND        PRES    VSBY  WAVE
                          AIR SEA DIR/SP/G                  HT/PER
                          (F)     (DEG/KT/KT) (MB)    (MI)  (FT/S)
HARRISON CRIB              48     360/  3/  5   N/A
BURNHAM HARBOR             50      30/  7/  9   N/A
CALUMET HARBOR             50      40/  8/ 12   N/A
BURNS HARBOR               53      80/ 11/ 20  998.0F
MICHIGAN CITY              53      60/ 11/ 16   N/A
MICHIGAN CITY 6N           50 44  100/ 12/ 16   N/A           1/ 3
$$

ILZ025>027-034>036-040-047-049-050-058-095>099-200100-
WEST-CENTRAL ILLINOIS

CITY           SKY/WX    TMP DP  RH WIND       PRES   REMARKS
QUINCY         CLOUDY    58  55  90 CALM      29.47F
$$

ILZ028>032-037-038-041>044-048-051>054-059>061-200100-
CENTRAL ILLINOIS

CITY           SKY/WX    TMP DP  RH WIND       PRES   REMARKS
DECATUR        LGT RAIN  57  55  93 W8        29.42F FOG
PEORIA         RAIN      57  55  93 W5        29.46S FOG
6HR MIN TEMP:  57; 6HR MAX TEMP:  64; 6HR PCP:  0.28;

SPRINGFIELD    LGT RAIN  59  57  93 W9        29.47F FOG
6HR MIN TEMP:  58; 6HR MAX TEMP:  61; 6HR PCP:  0.67;

TAYLORVILLE    NOT AVBL
$$

ILZ033-039-045-046-055>057-062-063-200100-
EAST-CENTRAL ILLINOIS

CITY           SKY/WX    TMP DP  RH WIND       PRES   REMARKS
CHAMPAIGN      LGT RAIN  57  57 100 W6        29.39F FOG
MATTOON        CLOUDY    59  58  96 SW9       29.39F
$$

ILZ079-100>102-200100-
SOUTHWEST ILLINOIS

CITY           SKY/WX    TMP DP  RH WIND       PRES   REMARKS
BELLEVILLE     CLOUDY    61  60  99 W8        29.47F
CAHOKIA*       CLOUDY    62  57  83 W7        29.48F
$$

ILZ064>066-069>071-074>076-080>082-084>086-088>090-092>094-200100-
SOUTH-CENTRAL ILLINOIS

CITY           SKY/WX    TMP DP  RH WIND       PRES   REMARKS
CARBONDALE     CLOUDY    63  60  90 SW6       29.50S
6HR MIN TEMP:  63; 6HR MAX TEMP:  68; 6HR PCP:  0.26;

MT. VERNON     CLOUDY    61  55  82 W8        29.48R
$$

ILZ067-068-072-073-078-083-087-091-200100-
SOUTHEAST ILLINOIS

CITY           SKY/WX    TMP DP  RH WIND       PRES   REMARKS
LAWRENCEVILLE  LGT RAIN  60  59  96 W17G24    29.41S
$$

ABBREVIATIONS USED IN REMARKS
   TC - TEMPERATURE IN CELSIUS
  WCI - WIND CHILL INDEX
   HX - HEAT INDEX
  VSB - VISIBILITY
$$



USA.gov is the U.S. government's official web portal to all federal, state and local government web resources and services.